Provo, UT

8:24 PM MST on November 14, 2019 (GMT -0700)
Provo Municipal

Weather History for KPVU - September, 2019

Change the Weather History Date:

Tuesday, September 24, 2019

  Actual Average Record
Temperature  
Mean Temperature 59 °F -  
Max Temperature 73 °F 72 °F 89 °F (2001)
Min Temperature 45 °F 44 °F 33 °F (2000)
Degree Days  
Heating Degree Days 6    
Growing Degree Days 9 (Base 50)    
Moisture  
Dew Point 40 °F    
Average Humidity 53    
Maximum Humidity 76    
Minimum Humidity 30    
Precipitation  
Precipitation 0.00 in - - ()
Sea Level Pressure  
Sea Level Pressure 30.11 in    
Wind  
Wind Speed 4 mph (SSE)    
Max Wind Speed 9 mph    
Max Gust Speed -    
Visibility 10 miles    
Events      
Averages and records for this station are not official NWS values.
T = Trace of Precipitation, MM = Missing Value Source: NWS Daily Summary

Daily Weather History Graph

Daily Weather History Graph

Search for Another Location

Airport or City:

Astronomy

Sep. 24, 2019 Rise Set
Actual Time 7:16 AM MDT 7:20 PM MDT
Civil Twilight 6:49 AM MDT 7:47 PM MDT
Nautical Twilight 6:17 AM MDT 8:19 PM MDT
Astronomical Twilight 5:45 AM MDT 8:51 PM MDT
Moon 2:04 AM MDT (9/24) 5:10 PM MDT (9/24)
Length of Visible Light 12h 58m
Length of Day
12h 04m
Waning Crescent, 22% of the Moon is Illuminated
Sep 24
Waning Crescent
Sep 28
New
Oct 5
First Quarter
Oct 13
Full
Oct 21
Last Quarter

Hourly Weather History & Observations

Time (MDT) Temp. Windchill Dew Point Humidity Pressure Visibility Wind Dir Wind Speed Gust Speed Precip Events Conditions
12:56 AM 53.1 °F - 37.0 °F 55% 30.09 in 10.0 mi ESE 3.5 mph - N/A   Clear
1:56 AM 50.0 °F - 39.0 °F 66% 30.10 in 10.0 mi Calm Calm - N/A   Clear
2:56 AM 51.1 °F - 37.9 °F 61% 30.09 in 10.0 mi SSE 4.6 mph - N/A   Clear
3:56 AM 48.9 °F - 37.9 °F 66% 30.10 in 10.0 mi ESE 3.5 mph - N/A   Clear
4:56 AM 48.0 °F - 37.0 °F 66% 30.12 in 10.0 mi SE 3.5 mph - N/A   Clear
5:56 AM 46.9 °F - 37.0 °F 68% 30.13 in 10.0 mi Calm Calm - N/A   Clear
6:56 AM 45.0 °F 43.5 °F 37.9 °F 76% 30.17 in 10.0 mi East 3.5 mph - N/A   Scattered Clouds
7:56 AM 45.0 °F 43.5 °F 37.0 °F 74% 30.19 in 10.0 mi East 3.5 mph - N/A   Scattered Clouds
8:56 AM 53.1 °F - 39.0 °F 59% 30.19 in 10.0 mi SSE 5.8 mph - N/A   Scattered Clouds
9:56 AM 57.0 °F - 39.0 °F 51% 30.19 in 10.0 mi SE 3.5 mph - N/A   Scattered Clouds
10:56 AM 63.0 °F - 37.0 °F 38% 30.19 in 10.0 mi SE 4.6 mph - N/A   Scattered Clouds
11:56 AM 64.0 °F - 39.9 °F 41% 30.18 in 10.0 mi WSW 5.8 mph - N/A   Scattered Clouds
12:56 PM 66.9 °F - 39.9 °F 37% 30.16 in 10.0 mi Variable 4.6 mph - N/A   Scattered Clouds
1:56 PM 69.1 °F - 42.1 °F 38% 30.13 in 10.0 mi WSW 5.8 mph - N/A   Clear
2:56 PM 72.0 °F - 39.9 °F 31% 30.09 in 10.0 mi WSW 6.9 mph - N/A   Clear
3:56 PM 73.0 °F - 39.9 °F 30% 30.06 in 10.0 mi SSW 4.6 mph - N/A   Clear
4:56 PM 73.0 °F - 39.9 °F 30% 30.04 in 10.0 mi Variable 4.6 mph - N/A   Clear
5:56 PM 72.0 °F - 42.1 °F 34% 30.04 in 10.0 mi NW 9.2 mph - N/A   Clear
7:56 PM 64.0 °F - 50.0 °F 60% 30.07 in 10.0 mi WNW 6.9 mph - N/A   Clear
8:56 PM 64.0 °F - 46.0 °F 52% 30.06 in 10.0 mi NW 5.8 mph - N/A   Clear
10:56 PM 57.0 °F - 45.0 °F 64% 30.05 in 10.0 mi Calm Calm - N/A   Clear
11:56 PM 57.0 °F - 46.9 °F 69% 30.05 in 10.0 mi South 3.5 mph - N/A   Clear